Regional Weather Roundup
Issued by NWS

Home | Current Version | Previous Version | Text Only | Print | Product List | Glossary On
Versions: 1 2 3 4 5 6 7 8 9 10 11 12 13 14 15 16 17 18 19 20 21 22 23 24 25 26 27 28 29 30 31 32 33 34 35 36 37 38 39 40 41 42 43 44 45 46 47 48 49 50
000
ASUS45 KTFX 250419
RWRMT
MONTANA HOURLY WEATHER ROUNDUP
NATIONAL WEATHER SERVICE GREAT FALLS MT
1019 PM MDT FRI OCT 24 2014

NOTE: "FAIR" INDICATES FEW OR NO CLOUDS BELOW 12000 FEET WITH NO
SIGNIFICANT WEATHER AND/OR OBSTRUCTIONS TO VISIBILITY.

* THESE STATIONS ARE NOT UNDER NWS QUALITY CONTROL. THEY DO NOT
   REPORT WEATHER SUCH AS PRECIPITATION OR FOG.

MTZ001>007-043-250500-
WEST OF THE DIVIDE
CITY           SKY/WX    TMP DP  RH WIND       PRES   REMARKS
KALISPELL      CLOUDY    43  39  86 CALM      30.06F
MISSOULA       MOCLDY    45  45 100 NW5       30.08F
BUTTE          CLEAR     37  36  96 S6        30.11S WCI  32
MULLAN PASS    LGT RAIN  36  36 100 SE9       30.04F VSB 1/2  WCI  29
* ESSEX        N/A       39  38  96 N/A        N/A
* LINCOLN      N/A       42  41  96 N/A        N/A
* LOOKOUT PASS N/A       41  40  96 S9         N/A
* POLSON       N/A       44  36  74 N/A        N/A
* RONAN APT    CLOUDY    48  43  83 N/A        N/A
* SEELEY LAKE  N/A       43  42  96 N/A        N/A
* THOMP F APT  CLOUDY    49  23  36 N3G11      N/A
* YAAK HILL    N/A       44  40  86 N/A        N/A
$$

MTZ008-052>055-250500-
SOUTHWEST MONTANA
CITY           SKY/WX    TMP DP  RH WIND       PRES   REMARKS
BOZEMAN        PTCLDY    39  37  93 S3        30.10S
DILLON         CLEAR     41  39  93 S3        30.10R
W YELLOWSTONE  CLEAR     34  27  76 CALM      30.20R
* THREE FORKS  PTCLDY    45  19  35 N/A        N/A
* BOULDER HILL N/A       40  35  82 S4         N/A
* MONIDA PASS  N/A       45  25  45 SE6G11     N/A
* RAYNOLDS PAS N/A       47  33  58 S1         N/A
* WHITEHALL    N/A       45  41  86 E4         N/A
* WISE RIVER   N/A       38  36  93 SE3        N/A
$$

MTZ009>010-012-014-046-048-049-054-250500-
EAST SLOPES AND CENTRAL MONTANA
CITY           SKY/WX    TMP DP  RH WIND       PRES   REMARKS
CUT BANK       CLOUDY    45  32  60 N6        30.06R
GREAT FALLS    LGT RAIN  48  37  66 E7        30.07R
HELENA         MOCLDY    48  41  77 SW6       30.08S
MALMSTROM AFB  LGT RAIN  48  37  66 N1        30.09S
* CONRAD       CLOUDY    45  37  74 N/A        N/A
* DEARBORN     N/A       49  43  80 NE1        N/A
* EAST GLACIER N/A       41  32  70 W12        N/A
* MONARCH      N/A       45  34  65 NE2        N/A
* PENDROY      N/A       44  33  65 SW10       N/A
* SAINT MARY   N/A       42  31  65 S5G10      N/A
* SWEET GRASS  N/A       45  29  54 NW9        N/A
* WHITE SULPH  N/A       45  38  77 SE4        N/A
$$

MTZ011-013-016-021-035-040-045-047-050-051-250500-
NORTH CENTRAL MONTANA
CITY           SKY/WX    TMP DP  RH WIND       PRES   REMARKS
HAVRE          MOCLDY    41  30  65 S10       30.07S
LEWISTOWN      LGT RAIN  46  43  89 S8        30.11S
* CHINOOK      PTCLDY    39  30  70 CALM      30.07S
* FORT BENTON  CLOUDY    48  34  59 CALM      30.09S
* CHESTER      N/A       42  30  63 N/A        N/A
* DENTON       N/A       47  39  74 SW3        N/A
* JUDITH GAP   N/A       47  39  74 N6         N/A
* LOMA         N/A       49  34  56 NE2        N/A
$$

MTZ017>020-022>027-061-062-250500-
NORTHEAST MONTANA
CITY           SKY/WX    TMP DP  RH WIND       PRES   REMARKS
GLASGOW        PTCLDY    46  28  50 W6        30.06R
GLENDIVE       CLOUDY    45  32  60 W7        30.11R
JORDAN         MOCLDY    43  34  71 NW5       30.09R
SIDNEY         MOCLDY    45  30  56 CALM      30.09S
WOLF POINT     PTCLDY    39  28  65 CALM      30.08R
* BEAVER HILL  N/A       50  29  44 W6         N/A
* CIRCLE       N/A       42  31  65 N/A        N/A
* LINDSAY DVD  N/A       45  29  54 SW2        N/A
* NAVAJO       N/A       39  25  57 W7         N/A   WCI  34
$$

MTZ028>042-056>058-250500-
SOUTHCENTRAL AND SOUTHEAST MONTANA
CITY           SKY/WX    TMP DP  RH WIND       PRES   REMARKS
BAKER          CLOUDY    48  30  50 CALM      30.12R
BILLINGS       PTCLDY    48  36  63 N5        30.10S
LIVINGSTON     PTCLDY    45  37  74 E6        30.09R
MILES CITY     CLOUDY    54  34  47 CALM      30.09S
* LAUREL APT   PTCLDY    48  30  50 N/A        N/A
* ROUNDUP APT  MOCLDY    46  36  68 N/A        N/A
* ALZADA       N/A       49  31  50 NE1        N/A
* HYSHAM       N/A       53  30  41 SE9        N/A
* LAME DEER    N/A       49  29  46 E4         N/A
* REED POINT   N/A       41  39  93 E1         N/A
* ROSCOE HILL  N/A       45  32  60 SE6        N/A
$$

REGIONAL REPORTS...DAKOTAS
CITY           SKY/WX    TMP DP  RH WIND       PRES   REMARKS
WILLISTON      PTCLDY    45  27  49 W12       30.05R
DICKINSON      CLOUDY    45  32  60 W6        30.06R
BEACH          N/A       46  32  58 W3        30.11R
CROSBY         CLEAR     41  28  60 W10       30.03R
TIOGA          CLEAR     36  28  73 W9        30.06R WCI  29
BISMARCK       PTCLDY    48  32  54 W12       30.05R
GRAND FORKS    PTCLDY    52  36  55 W12       29.89R
FARGO          PTCLDY    50  32  50 W10       29.93R
BUFFALO SD     CLOUDY    52  32  47 W6        30.05R
RAPID CITY     CLEAR     46  34  63 NW12      30.12R
$$

REGIONAL REPORTS...WYOMING/IDAHO/WASHINGTON
CITY           SKY/WX    TMP DP  RH WIND       PRES   REMARKS
GILLETTE       PTCLDY    36  28  73 CALM      30.13R
SHERIDAN       CLEAR     36  30  79 CALM      30.13R
CODY           CLEAR     41  32  70 CALM      30.12S
YELLOWSTONE LA CLEAR     30  25  82 NW3       30.28S
SALMON         PTCLDY    37  37 100 CALM      30.10R VSB 3
MULLAN PASS    LGT RAIN  36  36 100 SE9       30.04S VSB 1/2  WCI  29
SAND POINT     CLOUDY    46  41  83 N13       30.02F
SPOKANE        LGT RAIN  50  43  77 NE8       29.98F
$$

REGIONAL REPORTS...ALBERTA
CITY           SKY/WX    TMP DP  RH WIND       PRES   REMARKS
CALGARY        MOCLDY    43  16  34 W12       30.00S
LETHBRIDGE     CLOUDY    41  28  60 SW17      30.04S
MEDICINE HAT   MOCLDY    45  28  51 SW8       30.02S
EDMONTON       N/A       27  18  69 S7        29.96R WCI  19
WATERTON GATE  N/A       45  30  56 SW12G17    N/A
CARDSTON       N/A       39  30  70 S3         N/A
MILK RIVER     N/A       37  34  89 NW1        N/A
$$

REGIONAL REPORTS...SASKATCHEWAN
CITY           SKY/WX    TMP DP  RH WIND       PRES   REMARKS
SWIFT CURRENT  CLEAR     36  28  73 SW10      30.01R WCI  29
REGINA         N/A       36  32  85 W10       29.99R WCI  29
VAL MARIE      N/A       36  28  73 SW2        N/A
ASSINIBOIA     N/A       36  28  73 W8         N/A   WCI  30

$$




USA.gov is the U.S. government's official web portal to all federal, state and local government web resources and services.